BREEZE-M R/B, 44626

Orbit data source: Space-Track

BREEZE-M R/B, 44626 is space debris in HEO originally from a launch on Wed, 09 Oct 2019 UTC launched from the Tyuratam Missile And Space Complex (TTMTR). Debris objects in space refer to the collection of defunct objects orbiting the Earth. Examples of debris include non-operational satellites, rocket bodies, and fragments generated from explosions, collisions, or faulty payload assembly.

Loading next visibility...
Identifier
44626, 2019-067C
Orbit
HEO
Country
Flag of CISCIS
Related business
Manufacturer
Khrunichev
Mission
Spacecraft
Bus & Motor
BRIZ, Unknown motor
Mass
~1,600 kg wet, 1,600 kg dry
Launch date (UTC)
2019-10-09 (7 years ago)
Launch vehicle
Unknown
Launch site
Tyuratam Missile And Space Complex (TTMTR)
Object type
Payload
Rocket body
Debris
Shape & HBR
Cyl, 2.0 m
Radar Cross Section
15.135 m², Medium (>0.1 m² and < 1m²)

Expand to show TLE details & history
Last TLE update: 2 days ago

TLE from 2 days ago
0 BREEZE-M R/B
1 44626U 19067C   26170.95499473 -.00000369  00000-0  00000+0 0  9999
2 44626  23.7546  58.7005 6480393  16.0391 357.5544  0.93851303 21120
Epoch: 2026-06-19T22:55Z
TLE epoch observation values (Epoch: 2026-06-19T22:55:11.544Z)
Latitude
-0.00053°
Longitude
166.7731°
Altitude
9,295.623 km
Speed
6.467 km/s
True Right ascension
03h 54m 59s
True Declination
0° 00' 02"
Sunlit
Object was in daylight at epoch
Visualization orbit readout
Latitude
Unknown
Longitude
Unknown
Altitude
Unknown
Speed
Unknown
Apparent Right ascension
Unknown
Apparent Declination
Unknown
Sunlit
N/A
Visualization observer readout
Local Sidereal Time
21:40:45
Azimuth
Unknown
Elevation
Unknown
Doppler factor
Unknown
Orbital elements
Apogee altitude
66,248.01 km
Perigee altitude
9,132.142 km
Semi-major axis
44,068.213 km
Eccentricity
0.64804
Inclination
23.7546°
RAAN
58.7005°
Arg. of periapsis
16.0391°
True anomaly
345.09744°
Mean anomaly
357.5544°
Eccentric anomaly
353.08242°
Mean motion
0.23461 °/min
Orbital period
1,534.43 mins
BSTAR
0
Loading maneuver chart data...
Computing Atmospheric mass density...
Loading historical data...
Loading historical data...
Loading historical data...
Loading historical data...
Loading historical data...
Loading historical data...
Loading historical data...
Other satellites on launch #67 in the year 2019 (2019-10-09 UTC)

Documentation

Showing up to 5 results
|